Simultaneous Nadir Overpasses (SNOs) Predictions

Prediction of SNOs between GOES-16 and METOP-C Satellite Orbit:

Table of predicted SNOs for the next 14.0 days since TLE Epoch: 7/30/2023
Index Date Time (GOES-16) GOES-16 Lat,Lon METOP-C Lat,Lon Distance(km) Time Diff (sec)
1 07/31/2023 02:45:42 -0.01, -75.21 -0.76, -78.55 380.89 80
2 08/01/2023 02:22:21 -0.00, -75.21 0.36, -73.55 188.72 80
3 08/02/2023 14:41:13 0.00, -75.22 0.63, -78.12 329.66 80
4 08/03/2023 14:23:12 0.00, -75.23 -0.49, -73.12 240.60 80
5 08/05/2023 02:42:10 0.00, -75.24 -0.54, -77.71 281.26 80
6 08/06/2023 02:18:49 0.00, -75.25 0.59, -72.71 289.52 80
7 08/07/2023 14:37:39 0.00, -75.27 0.45, -77.27 227.30 80
8 08/08/2023 14:19:39 0.00, -75.29 -0.68, -72.27 343.85 80
9 08/10/2023 02:38:36 0.00, -75.31 -0.33, -76.86 176.89 80
10 08/11/2023 02:15:16 0.00, -75.32 0.80, -71.87 394.41 80
11 08/12/2023 14:34:06 -0.01, -75.35 0.23, -76.42 121.76 80
